Weather History for Orange, MA

Change the Weather History Date:

Thursday, November 8, 2012

  Actual Average Record
Temperature  
Mean Temperature 36 °F -  
Max Temperature 39 °F 47 °F 66 °F (2011)
Min Temperature 32 °F 28 °F 21 °F (2003)
Degree Days  
Heating Degree Days 30    
Moisture  
Dew Point 27 °F    
Average Humidity 70    
Maximum Humidity 81    
Minimum Humidity 56    
Precipitation  
Precipitation 0.00 in - - ()
Sea Level Pressure  
Sea Level Pressure 29.78 in    
Wind  
Wind Speed 15 mph (NNW)    
Max Wind Speed 25 mph    
Max Gust Speed 33 mph    
Visibility 9 miles    
Events Rain , Snow    
Averages and records for this station are not official NWS values.
T = Trace of Precipitation, MM = Missing Value Source: NWS Daily Summary

Daily Weather History Graph

Daily Weather History Graph

Search for Another Location

Airport:

Trip Planner

Search our weather history database for the weather conditions in past years. The results will help you decide how hot, cold, wet, or windy it might be!

Date:

Astronomy

Nov. 08, 2012 Rise Set
Actual Time 6:32 AM EST 4:33 PM EST
Civil Twilight 6:02 AM EST 5:02 PM EST
Nautical Twilight 5:28 AM EST 5:36 PM EST
Astronomical Twilight 4:55 AM EST 6:09 PM EST
Moon 12:16 AM EST (11/8) 1:19 PM EST (11/8)
Length of Visible Light 11h 00m
Length of Day
10h 00m
Waning Crescent, 33% of the Moon is Illuminated
Nov 8
Waning Crescent
Nov 13
New
Nov 20
First Quarter
Nov 28
Full
Dec 6
Last Quarter

Hourly Weather History & Observations

Time (EST) Temp. Windchill Dew Point Humidity Pressure Visibility Wind Dir Wind Speed Gust Speed Precip Events Conditions
12:52 AM 34.0 °F 24.2 °F 23.0 °F 64% 29.81 in 4.0 mi North 15.0 mph 25.3 mph 0.00 in Snow Light Snow
1:52 AM 33.1 °F 22.6 °F 24.1 °F 70% 29.79 in 9.0 mi North 16.1 mph 21.9 mph 0.00 in   Overcast
2:18 AM 33.8 °F 24.8 °F 24.8 °F 70% 29.77 in 9.0 mi North 12.7 mph - 0.00 in   Overcast
2:52 AM 33.1 °F 24.4 °F 25.0 °F 72% 29.78 in 5.0 mi North 11.5 mph 19.6 mph 0.00 in Snow Light Snow
3:36 AM 33.8 °F 24.3 °F 24.8 °F 70% 29.76 in 8.0 mi North 13.8 mph 25.3 mph 0.00 in Snow Light Snow
3:52 AM 33.1 °F 22.6 °F 25.0 °F 72% 29.78 in 10.0 mi North 16.1 mph 27.6 mph 0.00 in   Overcast
4:52 AM 33.1 °F 23.0 °F 26.1 °F 75% 29.77 in 6.0 mi North 15.0 mph - 0.00 in Snow Light Snow
6:52 AM 32.0 °F 20.8 °F 25.0 °F 75% 29.76 in 10.0 mi North 17.3 mph 21.9 mph 0.00 in   Overcast
7:52 AM 34.0 °F 23.0 °F 23.0 °F 64% 29.76 in 10.0 mi North 18.4 mph 24.2 mph N/A   Overcast
8:52 AM 36.0 °F 26.0 °F 24.1 °F 62% 29.75 in 10.0 mi North 17.3 mph 27.6 mph 0.00 in   Overcast
9:52 AM 37.0 °F 27.7 °F 24.1 °F 59% 29.76 in 10.0 mi North 16.1 mph 28.8 mph N/A   Overcast
10:45 AM 37.4 °F 27.8 °F 24.8 °F 60% 29.72 in 10.0 mi NNW 17.3 mph 27.6 mph N/A   Overcast
10:52 AM 39.0 °F 31.0 °F 25.0 °F 57% 29.74 in 10.0 mi NNW 13.8 mph 27.6 mph N/A   Overcast
11:37 AM 39.2 °F 28.3 °F 24.8 °F 56% 29.71 in 10.0 mi NNW 25.3 mph 33.4 mph N/A   Overcast
12:52 PM 39.0 °F 31.0 °F 27.0 °F 62% 29.72 in 10.0 mi North 13.8 mph 26.5 mph 0.00 in Rain Light Rain
1:52 PM 37.0 °F 28.5 °F 28.9 °F 73% 29.73 in 10.0 mi NNW 13.8 mph 25.3 mph 0.00 in Rain Light Rain
2:52 PM 37.0 °F 27.4 °F 28.9 °F 73% 29.75 in 10.0 mi NNW 17.3 mph 23.0 mph 0.00 in   Overcast
3:52 PM 37.0 °F 27.7 °F 28.9 °F 73% 29.77 in 10.0 mi NNW 16.1 mph 20.7 mph 0.00 in Rain Light Rain
4:52 PM 36.0 °F 26.7 °F 30.0 °F 79% 29.79 in 10.0 mi North 15.0 mph 25.3 mph 0.00 in   Overcast
5:52 PM 36.0 °F 26.7 °F 30.0 °F 79% 29.81 in 10.0 mi NNW 15.0 mph 28.8 mph 0.00 in Rain Light Rain
6:52 PM 36.0 °F 26.7 °F 28.9 °F 76% 29.82 in 10.0 mi NNW 15.0 mph 27.6 mph 0.00 in   Overcast
7:52 PM 37.0 °F 28.5 °F 28.9 °F 73% 29.82 in 10.0 mi NNW 13.8 mph 20.7 mph N/A   Overcast
8:52 PM 36.0 °F 26.0 °F 30.0 °F 79% 29.83 in 10.0 mi NNW 17.3 mph 26.5 mph N/A   Overcast
9:24 PM 35.6 °F 25.9 °F 30.2 °F 81% 29.81 in 10.0 mi NNW 16.1 mph 25.3 mph N/A   Overcast
9:52 PM 37.0 °F 28.1 °F 28.9 °F 73% 29.83 in 10.0 mi NNW 15.0 mph 23.0 mph N/A   Overcast
10:25 PM 37.4 °F 28.5 °F 28.4 °F 70% 29.81 in 10.0 mi North 15.0 mph 26.5 mph N/A   Overcast
10:52 PM 37.0 °F 27.7 °F 28.9 °F 73% 29.83 in 10.0 mi NNW 16.1 mph 27.6 mph N/A   Overcast
11:52 PM 37.0 °F 27.7 °F 28.9 °F 73% 29.84 in 10.0 mi NW 16.1 mph - N/A   Overcast